KMLB

Melbourne International Airport

Airport
ICAO code
KMLB
Summary
ICAO Region
NAM
ICAO Territory
Location

Melbourne, Florida,

Coordinates
28° 6' 8" N , 80° 37' 49" W
KCC
Airport LOS
Parallel Runway Operation
Metar
KMLB 150153Z 30004KT 10SM CLR 27/23 A2990 RMK AO2 SLP125 T02670233

Description

Melbourne International Airport is a public airport located 2.4 km northwest of the downtown business district of Melbourne, a city in Brevard County, Florida.

Climatology

Humid “subtropical” climate (Köppen climate classification Cfa) - characterized by hot, humid summers and cool winters. Significant amounts of precipitation occur in all seasons in most areas.

Runways

Designator Length Width Surface Rops
5/23 915 23 ASP Yes/Yes
09L/27R 1829 46 ASP Yes/Yes
09R/27L 3103 46 ASP Yes/Yes

Airport map

Aerial View

SKYbrary Partners:

Safety knowledge contributed by: